HB9KNR Weather Reports


time (UTC)temp
C
wind
direction
speed
KPH
gust
KPH
rain 1hr
cm
rain 24hr
cm
rain mn
cm
humidity
%
barometer
mb
20260507030516 7 0.0 0.0 0.00 0.69 0.00 93 1011.4
20260507025516 6 0.0 0.0 0.00 0.69 0.00 93 1011.4
20260507024517 6 0.0 0.0 0.00 0.69 0.00 93 1011.3
20260507023517 6 0.0 0.0 0.00 0.69 0.00 92 1011.3
20260507022516 6 0.0 0.0 0.00 0.69 0.00 92 1011.2
20260507021517 6 0.0 0.0 0.00 0.69 0.00 92 1011.2
20260507020557 6 0.0 0.0 0.00 0.69 0.00 92 1011.2
20260507015516 6 0.0 0.0 0.00 0.69 0.00 92 1011.2
20260507014516 6 0.0 0.0 0.00 0.69 0.00 92 1011.1
20260507013516 6 0.0 0.0 0.00 0.69 0.00 92 1011.4
20260507012517 6 0.0 0.0 0.00 0.69 0.00 92 1011.5
20260507011517 6 0.0 0.0 0.00 0.69 0.00 92 1011.5
20260507010537 7 0.0 0.0 0.00 0.69 0.00 92 1011.3
20260507005516 7 0.0 0.0 0.00 0.69 0.00 92 1011.4
20260507004516 7 0.0 0.0 0.00 0.69 0.00 92 1011.3
20260507003516 7 0.0 0.0 0.00 0.69 0.00 91 1011.2
20260507002516 7 0.0 0.0 0.00 0.69 0.00 91 1011.2
20260507001516 7 0.0 0.0 0.00 0.69 0.00 92 1011.2
20260507000516 7 0.0 0.0 0.00 0.69 0.00 92 1011.0
20260506235517 7 0.0 0.0 0.00 0.69 0.00 92 1011.1
20260506234516 7 0.0 0.0 0.00 0.69 0.00 91 1011.1
20260506233516 7 0.0 0.0 0.00 0.69 0.00 91 1010.9
20260506232557 7 0.0 0.0 0.00 0.69 0.00 91 1010.9
20260506231516 7 0.0 0.0 0.00 0.69 0.00 91 1010.8
20260506230516 7 0.0 0.0 0.00 0.69 0.00 91 1010.8
20260506225516 7 0.0 0.0 0.00 0.69 0.00 91 1010.8
20260506224516 7 0.0 0.0 0.00 0.69 0.00 91 1010.9
20260506223516 7 0.0 0.0 0.00 0.69 0.00 91 1010.7
20260506222516 7 0.0 0.0 0.00 0.69 0.00 91 1010.8
20260506221516 7 0.0 0.0 0.00 0.69 0.00 91 1010.7
20260506220516 8 0.0 0.0 0.00 0.69 0.00 91 1010.7
20260506215517 8 0.0 0.0 0.00 0.69 0.69 91 1010.7
20260506214517 8 0.0 0.0 0.00 0.69 0.69 91 1010.6
20260506213537 8 0.0 0.0 0.00 0.69 0.69 91 1010.4
20260506212517 8 0.0 0.0 0.00 0.69 0.69 90 1010.5
20260506211517 8 0.0 3.2 0.00 0.69 0.69 90 1010.4
20260506210517 8 0.0 0.0 0.00 0.69 0.69 90 1010.4
20260506205517 8 0.0 0.0 0.00 0.69 0.69 89 1010.4
20260506204517 8 0.0 0.0 0.00 0.69 0.69 89 1010.4
20260506203517 8 0.0 0.0 0.00 0.69 0.69 89 1010.4
20260506202517 8 0.0 0.0 0.00 0.69 0.69 89 1010.3
20260506201517 8 0.0 0.0 0.00 0.69 0.69 89 1010.2
20260506200517 8 0.0 0.0 0.00 0.69 0.69 89 1010.1
20260506195517 8 0.0 0.0 0.00 0.69 0.69 89 1009.9
20260506194517 8 0.0 0.0 0.00 0.69 0.69 88 1009.9
20260506193517 8 0.0 0.0 0.00 0.69 0.69 88 1009.8
20260506192517 9 0.0 0.0 0.00 0.69 0.69 88 1009.6
20260506191517 9 0.0 0.0 0.00 0.69 0.69 88 1009.7
20260506190517 9 0.0 0.0 0.00 0.69 0.69 87 1009.7
20260506185517 9 0.0 0.0 0.00 0.69 0.69 87 1009.5
20260506184537 10 0.0 0.0 0.00 0.71 0.69 87 1009.3
20260506183537 10 0.0 1.6 0.00 0.71 0.69 87 1009.0
20260506182517 10 0.0 0.0 0.00 0.71 0.69 87 1008.9
20260506181517 10 0.0 0.0 0.00 0.71 0.69 87 1008.9
20260506180517 10 0.0 3.2 0.00 0.71 0.69 87 1008.9
20260506175517 10 0.0 1.6 0.00 0.71 0.69 88 1008.9
20260506174700 11 0.0 3.2 0.00 0.71 0.69 88 1008.9
20260506173517 11 0.0 1.6 0.00 0.71 0.69 88 1008.5
20260506172517 11 0.0 4.8 0.00 0.71 0.69 88 1008.5
20260506171517 11 0.0 1.6 0.00 0.71 0.69 88 1008.4
20260506170517 11 0.0 6.4 0.00 0.71 0.69 88 1008.0
20260506165537 11 0.0 4.8 0.00 0.71 0.69 89 1008.0
20260506164516 11 0.0 3.2 0.00 0.71 0.69 90 1008.0
20260506163517 11 0.0 3.2 0.00 0.71 0.69 89 1007.9
20260506162517 11 0.0 1.6 0.00 0.71 0.69 89 1007.9
20260506161537 11 0.0 3.2 0.00 0.71 0.69 89 1007.9
20260506160517 11 0.0 4.8 0.00 0.71 0.69 90 1007.8
20260506155517 11 293 1.6 11.3 0.00 0.71 0.69 90 1007.5
20260506154559 11 293 1.6 6.4 0.00 0.71 0.69 91 1007.5
20260506153537 11 0.0 6.4 0.00 0.71 0.69 92 1007.8
20260506152517 10 293 1.6 8.0 0.03 0.71 0.69 92 1007.9
20260506151517 10 0.0 0.0 0.05 0.71 0.69 92 1007.8
20260506150537 10 0.0 4.8 0.15 0.71 0.69 92 1007.9
20260506145516 10 293 1.6 6.4 0.28 0.71 0.69 91 1007.8
20260506144516 10 0.0 1.6 0.36 0.71 0.69 92 1007.7
20260506143516 10 293 1.6 8.0 0.48 0.71 0.69 92 1007.5
20260506142516 10 293 1.6 8.0 0.58 0.69 0.66 90 1007.4
20260506141537 10 0.0 4.8 0.64 0.66 0.64 89 1007.2
20260506140517 10 270 1.6 14.5 0.53 0.56 0.53 88 1007.3
20260506135517 11 293 1.6 6.4 0.41 0.43 0.41 86 1007.1
20260506134516 11 293 1.6 16.1 0.33 0.33 0.33 84 1006.7
20260506133516 12 293 3.2 14.5 0.20 0.23 0.20 81 1006.7
20260506132517 13 0.0 1.6 0.08 0.10 0.08 78 1006.8
20260506131537 15 0.0 1.6 0.00 0.03 0.00 75 1006.5
20260506130516 15 0.0 0.0 0.00 0.03 0.00 74 1006.1
20260506125537 15 0.0 0.0 0.00 0.03 0.00 73 1005.9
20260506124516 15 0.0 0.0 0.00 0.03 0.00 72 1005.7
20260506123517 15 0.0 0.0 0.00 0.03 0.00 72 1005.7
20260506122517 15 0.0 0.0 0.00 0.03 0.00 71 1005.6
20260506121517 15 0.0 0.0 0.00 0.03 0.00 75 1005.6
20260506120516 15 0.0 0.0 0.00 0.03 0.00 75 1005.7
20260506115556 15 0.0 0.0 0.00 0.03 0.00 74 1005.7
20260506114517 15 0.0 0.0 0.00 0.03 0.00 76 1005.7
20260506113516 15 0.0 0.0 0.00 0.03 0.00 77 1005.4
20260506112517 14 0.0 0.0 0.00 0.03 0.00 79 1005.4
20260506111536 14 0.0 0.0 0.00 0.03 0.00 80 1005.6
20260506110517 14 0.0 0.0 0.00 0.03 0.00 82 1005.8
20260506105516 14 0.0 0.0 0.00 0.03 0.00 83 1005.8
20260506104537 14 0.0 0.0 0.00 0.03 0.00 84 1005.9
20260506103516 13 0.0 0.0 0.00 0.03 0.00 84 1006.1
20260506102516 14 0.0 0.0 0.00 0.03 0.00 85 1006.0
20260506101516 13 0.0 0.0 0.00 0.03 0.00 86 1006.0
20260506100516 13 0.0 0.0 0.00 0.03 0.00 86 1006.2
20260506095537 13 0.0 0.0 0.00 0.03 0.00 87 1005.9
20260506094516 13 0.0 0.0 0.00 0.03 0.00 87 1006.3
20260506093516 12 0.0 0.0 0.00 0.03 0.00 88 1006.2
20260506092536 12 0.0 0.0 0.00 0.03 0.00 88 1006.2
20260506091518 12 0.0 0.0 0.00 0.03 0.00 88 1006.1
20260506090516 12 0.0 0.0 0.00 0.03 0.00 89 1006.2
20260506085516 12 0.0 0.0 0.00 0.03 0.00 89 1006.3
20260506084516 12 0.0 0.0 0.00 0.03 0.00 90 1006.2
20260506083516 12 0.0 0.0 0.00 0.03 0.00 89 1006.1
20260506082516 12 0.0 0.0 0.00 0.03 0.00 90 1006.2
20260506081516 12 0.0 0.0 0.00 0.03 0.00 92 1006.2
20260506080516 11 0.0 0.0 0.00 0.03 0.00 92 1006.2
20260506073516 11 0.0 0.0 0.00 0.03 0.00 92 1006.3
20260506072516 11 0.0 0.0 0.00 0.03 0.00 92 1006.3
20260506071556 11 0.0 0.0 0.00 0.03 0.00 92 1006.3
20260506070516 11 0.0 0.0 0.00 0.03 0.00 91 1006.3
20260506062516 11 0.0 0.0 0.00 0.03 0.00 93 1006.5
20260506061536 11 0.0 0.0 0.00 0.03 0.00 93 1006.6
20260506060516 11 0.0 0.0 0.00 0.03 0.00 93 1006.5
20260506050516 8 0.0 0.0 0.00 0.03 0.00 92 1006.6
20260506044516 8 0.0 0.0 0.00 0.03 0.00 91 1006.6
20260506043516 8 0.0 0.0 0.00 0.03 0.00 91 1006.6
20260506042516 8 0.0 0.0 0.00 0.03 0.00 91 1006.6
20260506041520 8 0.0 0.0 0.00 0.03 0.00 91 1006.8
20260506040516 8 0.0 0.0 0.00 0.03 0.00 91 1006.8
20260506035518 8 0.0 0.0 0.00 0.03 0.00 91 1007.0
20260506034516 8 0.0 0.0 0.00 0.03 0.00 90 1007.1
20260506033516 8 0.0 0.0 0.00 0.03 0.00 90 1007.1
20260506032516 8 0.0 0.0 0.00 0.03 0.00 90 1007.3
20260506031516 8 0.0 0.0 0.00 0.03 0.00 90 1007.3